TimeCEST,TemperatureF,Dew PointF,Humidity,Sea Level PressureIn,VisibilityMPH,Wind Direction,Wind SpeedMPH,Gust SpeedMPH,PrecipitationIn,Events,Conditions,WindDirDegrees,DateUTC
12:00 AM,69.8,55.4,60,30.01,-9999.0,Calm,Calm,-,N/A,,Clear,0,2012-10-03 22:00:00
12:30 AM,68.0,57.2,68,30.01,-9999.0,Calm,Calm,-,N/A,,Clear,0,2012-10-03 22:30:00
1:00 AM,66.2,57.2,73,30.01,-9999.0,Calm,Calm,-,N/A,,Clear,0,2012-10-03 23:00:00
4:30 AM,62.6,57.2,82,29.98,-9999.0,NNE,2.3,-,N/A,,Clear,30,2012-10-04 02:30:00
5:00 AM,62.6,57.2,82,29.98,-9999.0,NE,2.3,-,N/A,,Clear,50,2012-10-04 03:00:00
5:30 AM,62.6,55.4,77,29.98,-9999.0,ENE,2.3,-,N/A,,Clear,60,2012-10-04 03:30:00
6:00 AM,62.6,55.4,77,29.98,-9999.0,NNE,3.5,-,N/A,,Clear,20,2012-10-04 04:00:00
6:30 AM,62.6,55.4,77,29.98,-9999.0,Variable,2.3,-,N/A,,Clear,0,2012-10-04 04:30:00
7:00 AM,60.8,55.4,82,29.98,-9999.0,NNE,2.3,-,N/A,,Clear,30,2012-10-04 05:00:00
7:30 AM,60.8,55.4,82,29.98,-9999.0,North,4.6,-,N/A,,Clear,10,2012-10-04 05:30:00
8:00 AM,59.0,55.4,88,29.98,-9999.0,NNE,4.6,-,N/A,,Clear,20,2012-10-04 06:00:00
8:30 AM,59.0,55.4,88,29.98,-9999.0,NE,3.5,-,N/A,,Clear,40,2012-10-04 06:30:00
9:00 AM,60.8,55.4,82,30.01,-9999.0,NE,6.9,-,N/A,,Clear,50,2012-10-04 07:00:00
9:30 AM,62.6,55.4,77,30.01,-9999.0,NE,8.1,-,N/A,,Clear,40,2012-10-04 07:30:00
10:00 AM,66.2,55.4,68,30.01,-9999.0,NE,9.2,-,N/A,,Clear,40,2012-10-04 08:00:00
10:30 AM,68.0,55.4,64,30.01,-9999.0,NE,8.1,-,N/A,,Clear,50,2012-10-04 08:30:00
11:00 AM,71.6,53.6,53,30.01,-9999.0,NE,6.9,-,N/A,,Clear,50,2012-10-04 09:00:00
11:30 AM,71.6,53.6,53,30.01,-9999.0,NE,6.9,-,N/A,,Clear,50,2012-10-04 09:30:00
12:00 PM,75.2,51.8,44,30.01,-9999.0,ENE,6.9,-,N/A,,Clear,70,2012-10-04 10:00:00
12:30 PM,77.0,53.6,44,29.98,-9999.0,ENE,8.1,-,N/A,,Clear,60,2012-10-04 10:30:00
1:00 PM,78.8,53.6,42,29.98,-9999.0,ENE,9.2,-,N/A,,Clear,60,2012-10-04 11:00:00
1:30 PM,78.8,53.6,42,29.98,-9999.0,NE,8.1,-,N/A,,Clear,50,2012-10-04 11:30:00
2:00 PM,82.4,51.8,35,29.95,-9999.0,NE,8.1,-,N/A,,Clear,50,2012-10-04 12:00:00
2:30 PM,82.4,51.8,35,29.95,-9999.0,NE,6.9,-,N/A,,Clear,50,2012-10-04 12:30:00
3:00 PM,84.2,50.0,30,29.92,-9999.0,ENE,5.8,-,N/A,,Clear,60,2012-10-04 13:00:00
4:00 PM,84.2,44.6,25,29.92,-9999.0,ENE,3.5,-,N/A,,Clear,60,2012-10-04 14:00:00
4:30 PM,86.0,46.4,25,29.89,-9999.0,ENE,2.3,-,N/A,,Clear,60,2012-10-04 14:30:00
5:00 PM,87.8,48.2,25,29.89,-9999.0,North,1.2,-,N/A,,Clear,350,2012-10-04 15:00:00
5:30 PM,86.0,46.4,25,29.89,-9999.0,Variable,2.3,-,N/A,,Clear,0,2012-10-04 15:30:00
6:00 PM,86.0,46.4,25,29.89,-9999.0,North,2.3,-,N/A,,Clear,360,2012-10-04 16:00:00
6:30 PM,86.0,48.2,27,29.89,-9999.0,WNW,3.5,-,N/A,,Clear,300,2012-10-04 16:30:00
7:00 PM,86.0,46.4,25,29.89,-9999.0,Variable,2.3,-,N/A,,Clear,0,2012-10-04 17:00:00
7:30 PM,86.0,48.2,27,29.89,-9999.0,Variable,1.2,-,N/A,,Clear,0,2012-10-04 17:30:00
8:00 PM,82.4,48.2,30,29.89,-9999.0,NW,3.5,-,N/A,,Clear,310,2012-10-04 18:00:00
8:30 PM,78.8,50.0,36,29.89,-9999.0,Variable,2.3,-,N/A,,Clear,0,2012-10-04 18:30:00
9:00 PM,75.2,57.2,53,29.89,-9999.0,Variable,1.2,-,N/A,,Clear,0,2012-10-04 19:00:00
9:30 PM,73.4,55.4,53,29.89,-9999.0,Calm,Calm,-,N/A,,Clear,0,2012-10-04 19:30:00
10:00 PM,71.6,59.0,64,29.92,-9999.0,SE,2.3,-,N/A,,Clear,130,2012-10-04 20:00:00
10:30 PM,69.8,59.0,68,29.92,-9999.0,Variable,1.2,-,N/A,,Clear,0,2012-10-04 20:30:00
11:00 PM,73.4,51.8,47,29.92,-9999.0,South,5.8,-,N/A,,Clear,190,2012-10-04 21:00:00
11:30 PM,73.4,53.6,50,29.95,-9999.0,South,6.9,-,N/A,,Clear,190,2012-10-04 21:30:00